GW7204 Weather Reports


time (UTC)temp
F
wind
direction
speed
knots
gust
knots
rain 1hr
in
rain 24hr
in
rain mn
in
humidity
%
barometer
mb
20260510213910 72 327 1.7 2.6 0.00 0.00 0.05 37 1016.2
20260510213350 71 359 0.9 1.7 0.00 0.00 0.05 40 1015.9
20260510212721 71 66 1.7 3.5 0.00 0.00 0.05 41 1015.9
20260510212154 72 333 1.7 2.6 0.00 0.00 0.05 38 1016.2
20260510210926 71 30 1.7 2.6 0.00 0.00 0.05 40 1015.9
20260510210336 70 285 0.9 1.7 0.00 0.00 0.05 42 1015.9
20260510205746 72 207 2.6 2.6 0.00 0.00 0.05 39 1015.9
20260510205138 71 75 1.7 2.6 0.00 0.00 0.05 39 1015.9
20260510204552 70 22 1.7 2.6 0.00 0.00 0.05 39 1015.9
20260510203930 71 64 0.9 1.7 0.00 0.00 0.05 38 1015.5
20260510203333 71 305 3.5 3.5 0.00 0.00 0.05 44 1015.5
20260510202745 71 287 1.7 1.7 0.00 0.00 0.05 39 1015.9
20260510202136 72 267 4.3 7.8 0.00 0.00 0.05 40 1015.9
20260510200912 72 216 1.7 2.6 0.00 0.00 0.05 40 1015.5
20260510200339 72 148 3.5 6.1 0.00 0.00 0.05 39 1015.5
20260510195720 71 24 1.7 1.7 0.00 0.00 0.05 41 1015.5
20260510195153 71 35 1.7 3.5 0.00 0.00 0.05 41 1015.5
20260510194535 72 339 2.6 2.6 0.00 0.00 0.05 47 1015.5
20260510193952 72 239 1.7 2.6 0.00 0.00 0.05 41 1015.5
20260510193321 72 27 1.7 2.6 0.00 0.00 0.05 41 1015.5
20260510192731 71 35 2.6 5.2 0.00 0.00 0.05 45 1015.5
20260510192132 72 268 1.7 2.6 0.00 0.00 0.05 41 1015.5
20260510191534 70 22 2.6 2.6 0.00 0.00 0.05 44 1015.9
20260510190926 71 185 3.5 3.5 0.00 0.00 0.05 43 1015.9
20260510190319 71 1 1.7 2.6 0.00 0.00 0.05 44 1015.9
20260510185121 71 353 1.7 1.7 0.00 0.00 0.05 42 1015.9
20260510184544 71 164 3.5 3.5 0.00 0.00 0.05 43 1015.5
20260510183943 72 248 1.7 2.6 0.00 0.00 0.05 43 1015.9
20260510183349 71 30 1.7 1.7 0.00 0.00 0.05 46 1015.5
20260510182738 70 356 1.7 2.6 0.00 0.00 0.05 47 1015.9
20260510182115 71 67 0.9 1.7 0.00 0.00 0.05 49 1015.9
20260510181543 70 48 0.9 1.7 0.00 0.00 0.05 46 1015.5
20260510180934 72 156 1.7 1.7 0.00 0.00 0.05 42 1016.2
20260510180317 71 117 0.0 0.0 0.00 0.00 0.05 45 1015.9
20260510175741 70 166 0.0 0.9 0.00 0.00 0.05 45 1015.5
20260510175152 69 149 0.9 0.9 0.00 0.00 0.05 45 1015.5
20260510173950 69 28 0.9 1.7 0.00 0.00 0.05 49 1015.5
20260510173326 68 38 1.7 1.7 0.00 0.00 0.05 51 1015.9
20260510172724 68 117 0.0 0.9 0.00 0.00 0.05 52 1015.5
20260510172111 70 53 3.5 5.2 0.00 0.00 0.05 49 1015.9
20260510170336 67 172 0.9 1.7 0.00 0.00 0.05 52 1015.9
20260510165751 67 110 0.9 0.9 0.00 0.00 0.05 52 1015.9
20260510164545 66 58 0.9 0.9 0.00 0.00 0.05 59 1015.9
20260510163944 66 91 0.0 0.9 0.00 0.00 0.05 54 1015.9
20260510162724 64 4 2.6 2.6 0.00 0.00 0.05 58 1015.9
20260510161529 65 105 0.9 0.9 0.00 0.00 0.05 63 1015.9
20260510160950 64 45 0.9 1.7 0.00 0.00 0.05 64 1015.9
20260510155736 63 34 0.9 1.7 0.00 0.00 0.05 66 1015.9
20260510155150 63 84 0.0 0.0 0.00 0.00 0.05 68 1015.5
20260510154523 62 356 0.9 1.7 0.00 0.00 0.05 68 1015.9
20260510153949 62 19 1.7 2.6 0.00 0.00 0.05 71 1015.5
20260510153322 61 50 2.6 3.5 0.00 0.00 0.05 73 1015.5
20260510152733 61 77 0.0 0.0 0.00 0.00 0.05 80 1015.5
20260510152149 62 121 0.0 0.0 0.00 0.00 0.05 81 1015.5
20260510151535 60 87 0.0 0.0 0.00 0.00 0.05 82 1015.5
20260510150914 60 64 0.0 0.0 0.00 0.00 0.05 86 1015.5
20260510150339 60 92 0.0 0.9 0.00 0.00 0.05 84 1015.2
20260510145717 60 80 0.0 0.0 0.00 0.00 0.05 87 1015.2
20260510145138 59 85 0.0 0.0 0.00 0.00 0.05 87 1015.2
20260510144510 59 48 0.9 0.9 0.00 0.00 0.05 90 1014.9
20260510143926 60 120 0.0 0.0 0.00 0.00 0.05 94 1014.5
20260510143335 59 102 0.0 0.0 0.00 0.00 0.05 94 1014.5
20260510142713 58 97 0.0 0.0 0.00 0.00 0.05 96 1014.5
20260510142128 58 90 0.0 0.0 0.00 0.00 0.05 96 1014.2
20260510140929 57 119 0.0 0.0 0.00 0.00 0.05 99 1014.2
20260510135715 56 64 0.9 0.9 0.00 0.00 0.05 99 1014.2
20260510135116 56 87 0.0 0.0 0.00 0.00 0.05 99 1014.2
20260510134511 56 64 0.0 0.0 0.00 0.00 0.05 99 1014.2
20260510133348 56 92 0.0 0.0 0.00 0.00 0.05 99 1014.2
20260510132749 56 153 0.0 0.0 0.00 0.00 0.05 99 1014.2
20260510131517 55 102 0.0 0.0 0.00 0.00 0.02 98 1014.2
20260510130920 56 117 0.0 0.0 0.00 0.00 0.02 98 1014.5
20260510130331 56 102 0.0 0.0 0.00 0.00 0.02 97 1014.5
20260510125751 56 138 0.0 0.0 0.00 0.00 0.02 96 1014.5
20260510125144 56 182 0.9 0.9 0.00 0.00 0.00 96 1014.2
20260510123308 53 123 0.0 0.0 0.00 0.00 0.00 99 1013.8
20260510122729 52 125 0.0 0.0 0.00 0.00 0.00 99 1013.5
20260510122133 52 118 0.0 0.0 0.00 0.00 0.00 99 1013.5
20260510121511 52 102 0.0 0.0 0.00 0.00 0.00 99 1013.5
20260510120949 52 117 0.0 0.0 0.00 0.00 0.00 99 1013.5
20260510115743 50 98 0.0 0.0 0.00 0.00 0.00 99 1013.2
20260510114518 50 102 0.0 0.0 0.00 0.00 0.00 99 1013.2
20260510113914 50 102 0.0 0.0 0.00 0.00 0.00 99 1013.2
20260510112710 50 145 0.0 0.0 0.00 0.00 0.00 99 1012.8
20260510112131 49 143 0.0 0.0 0.00 0.00 0.00 99 1012.8
20260510111532 49 131 0.0 0.0 0.00 0.00 0.00 99 1012.5
20260510110933 49 130 0.0 0.0 0.00 0.00 0.00 99 1012.5
20260510110312 48 102 0.0 0.0 0.00 0.00 0.00 99 1012.1
20260510105747 49 121 0.0 0.0 0.00 0.00 0.00 99 1012.1
20260510105143 48 122 0.0 0.0 0.00 0.00 0.00 99 1012.1
20260510103934 48 108 0.0 0.0 0.00 0.00 0.00 99 1011.8
20260510103324 48 103 0.0 0.0 0.00 0.00 0.00 99 1011.8
20260510102717 48 98 0.0 0.0 0.00 0.00 0.00 99 1011.8
20260510102142 48 91 0.0 0.0 0.00 0.00 0.00 99 1011.8
20260510101510 48 156 0.0 0.0 0.00 0.00 0.00 99 1011.8
20260510100351 48 114 0.0 0.0 0.00 0.00 0.00 99 1011.8
20260510095710 48 114 0.0 0.0 0.00 0.00 0.00 99 1011.8
20260510095139 48 122 0.0 0.0 0.00 0.00 0.00 99 1011.5
20260510094539 48 127 0.0 0.0 0.00 0.00 0.00 99 1011.8
20260510093908 48 128 0.0 0.0 0.00 0.00 0.00 99 1011.5
20260510093327 48 129 0.0 0.0 0.00 0.00 0.00 99 1011.1
20260510092725 48 129 0.0 0.0 0.00 0.00 0.00 99 1011.1
20260510092129 48 142 0.0 0.0 0.00 0.00 0.00 99 1011.1
20260510091537 48 108 0.0 0.0 0.00 0.00 0.00 99 1010.8
20260510090909 49 103 0.0 0.0 0.00 0.00 0.00 99 1010.8
20260510090341 50 68 0.0 0.0 0.00 0.00 0.00 99 1010.8
20260510085716 49 112 0.0 0.0 0.00 0.00 0.00 99 1011.1
20260510083948 50 133 0.0 0.0 0.00 0.00 0.00 99 1010.8
20260510083352 50 95 0.0 0.0 0.00 0.00 0.00 99 1010.8
20260510082744 50 125 0.0 0.0 0.00 0.00 0.00 99 1010.8
20260510082119 50 123 0.0 0.0 0.00 0.00 0.00 99 1010.8
20260510081549 50 138 0.0 0.0 0.00 0.00 0.00 99 1010.8
20260510080918 50 121 0.0 0.0 0.00 0.00 0.00 99 1010.8
20260510080327 50 128 0.0 0.0 0.00 0.00 0.00 99 1010.4
20260510075750 50 98 0.0 0.0 0.00 0.00 0.00 99 1010.8
20260510074542 50 168 0.0 0.0 0.00 0.00 0.00 99 1011.1
20260510073942 50 119 0.0 0.0 0.00 0.00 0.00 99 1010.8
20260510073347 51 128 0.0 0.0 0.00 0.00 0.00 99 1010.8
20260510072734 50 171 1.7 1.7 0.00 0.00 0.00 99 1010.8
20260510072126 50 91 0.0 0.0 0.00 0.00 0.00 99 1010.4
20260510071546 50 98 0.0 0.0 0.00 0.00 0.00 99 1010.4
20260510070925 50 120 0.0 0.0 0.00 0.00 0.00 99 1010.4
20260510070312 50 116 0.0 0.0 0.00 0.00 0.00 99 1010.8
20260510065734 50 111 0.0 0.0 0.00 0.00 0.00 99 1010.8
20260510065141 50 121 0.0 0.0 0.00 0.00 0.00 99 1010.4
20260510063923 50 111 0.0 0.0 0.00 0.00 0.00 99 1010.4
20260510063330 51 136 0.0 0.0 0.00 0.00 0.00 99 1010.4
20260510062709 51 130 0.0 0.0 0.00 0.00 0.00 98 1010.4
20260510062146 51 119 0.0 0.0 0.00 0.00 0.00 98 1010.4
20260510061534 51 108 0.0 0.0 0.00 0.00 0.00 98 1010.4
20260510060949 51 122 0.0 0.0 0.00 0.00 0.00 98 1010.4
20260510060341 51 112 0.0 0.0 0.00 0.00 0.00 98 1010.8
20260510055725 51 120 0.0 0.0 0.00 0.00 0.00 98 1010.8
20260510055118 52 123 0.0 0.0 0.00 0.00 0.00 97 1010.4
20260510054538 52 127 0.0 0.0 0.00 0.00 0.00 98 1010.8
20260510053314 52 128 0.0 0.0 0.00 0.00 0.00 97 1010.8
20260510052149 53 142 0.0 0.0 0.00 0.00 0.00 95 1010.8
20260510051548 53 89 0.0 0.0 0.00 0.00 0.00 95 1010.4
20260510050912 54 127 0.0 0.0 0.00 0.00 0.00 94 1010.8
20260510050332 54 123 0.0 0.0 0.00 0.00 0.00 94 1010.8
20260510045721 55 116 0.0 0.0 0.00 0.00 0.00 92 1010.8
20260510045110 55 108 0.0 0.0 0.00 0.00 0.00 92 1010.8
20260510043931 56 98 0.0 0.0 0.00 0.00 0.00 89 1010.8
20260510043338 56 108 0.0 0.0 0.00 0.00 0.00 89 1010.8
20260510042711 57 134 0.0 0.0 0.00 0.00 0.00 88 1010.8
20260510042145 58 128 0.0 0.0 0.00 0.00 0.00 86 1010.8
20260510041533 58 106 0.0 0.0 0.00 0.00 0.00 85 1010.8
20260510040924 58 111 0.0 0.0 0.00 0.00 0.00 84 1010.4
20260510040343 58 125 0.0 0.0 0.00 0.00 0.00 85 1010.4
20260510035747 57 106 0.0 0.0 0.00 0.00 0.17 86 1010.4
20260510035123 57 107 0.0 0.0 0.00 0.00 0.17 86 1010.4
20260510034541 56 111 0.0 0.0 0.00 0.00 0.17 88 1010.4
20260510033909 55 118 0.0 0.0 0.00 0.00 0.17 93 1010.8
20260510033316 55 117 0.0 0.0 0.00 0.00 0.17 94 1010.4
20260510032752 55 118 0.0 0.0 0.00 0.00 0.17 93 1010.8
20260510032147 55 121 0.0 0.0 0.00 0.00 0.17 93 1010.8
20260510031524 56 125 0.0 0.0 0.00 0.00 0.17 91 1010.8
20260510030918 56 126 0.0 0.0 0.00 0.00 0.17 91 1010.4
20260510030328 56 92 0.0 0.0 0.00 0.00 0.17 90 1010.4
20260510025732 56 126 0.0 0.0 0.00 0.00 0.17 91 1010.4
20260510025122 56 101 0.9 0.9 0.00 0.00 0.17 91 1010.1
20260510023940 57 124 0.0 0.0 0.00 0.00 0.17 88 1010.4
20260510022739 57 128 0.0 0.0 0.00 0.00 0.17 89 1010.1
20260510021510 58 116 0.0 0.0 0.00 0.00 0.17 87 1010.1
20260510020952 58 125 0.0 0.0 0.00 0.00 0.17 87 1010.1
20260510015740 58 116 0.0 0.0 0.00 0.00 0.17 87 1010.1
20260510015143 58 134 0.0 0.0 0.00 0.00 0.17 86 1009.8
20260510014511 59 118 0.0 0.0 0.00 0.00 0.17 84 1009.4
20260510013946 59 115 0.0 0.0 0.00 0.00 0.17 84 1009.4
20260510012725 60 117 0.0 0.0 0.00 0.00 0.17 79 1009.4
20260510012131 61 133 0.0 0.0 0.00 0.00 0.17 77 1009.4
20260510011556 61 126 0.0 0.0 0.00 0.00 0.17 75 1009.4
20260510010951 62 124 0.0 0.0 0.00 0.00 0.17 72 1009.1
20260510010348 63 128 0.0 0.0 0.00 0.00 0.17 68 1009.1
20260510005143 65 114 0.0 0.0 0.00 0.00 0.17 64 1008.8
20260510004550 65 123 0.0 0.0 0.00 0.00 0.17 63 1009.1
20260510003307 67 112 0.0 0.0 0.00 0.00 0.17 58 1008.4
20260510002716 68 118 0.0 0.0 0.00 0.00 0.17 57 1008.4
20260510001511 70 96 0.0 0.9 0.00 0.00 0.17 54 1008.4
20260510000943 70 145 0.0 0.0 0.00 0.00 0.17 53 1008.4
20260510000349 71 118 0.0 0.0 0.00 0.00 0.17 53 1008.4
20260509235710 72 353 0.9 0.9 0.00 0.00 0.17 51 1008.4
20260509235126 73 151 0.9 0.9 0.00 0.00 0.17 50 1008.4
20260509234543 73 342 0.9 1.7 0.00 0.00 0.17 48 1008.4
20260509233949 73 209 0.9 0.9 0.00 0.00 0.17 49 1008.1
20260509233339 73 241 2.6 2.6 0.00 0.00 0.17 48 1008.4
20260509232130 74 131 0.0 0.9 0.00 0.00 0.17 47 1008.1
20260509231509 74 50 1.7 1.7 0.00 0.00 0.17 46 1008.1
20260509230951 73 124 0.9 0.9 0.00 0.00 0.17 47 1008.1
20260509230332 74 214 1.7 1.7 0.00 0.00 0.17 46 1007.7
20260509225146 76 180 1.7 2.6 0.00 0.00 0.17 43 1007.7
20260509224535 75 178 0.0 0.0 0.00 0.00 0.17 45 1008.1
20260509223928 74 251 1.7 1.7 0.00 0.00 0.17 46 1008.1
20260509223343 75 343 1.7 5.2 0.00 0.00 0.17 44 1008.1
20260509222130 78 130 1.7 1.7 0.00 0.00 0.17 43 1008.1
20260509220918 75 9 0.9 1.7 0.00 0.00 0.17 45 1008.1
20260509220326 75 233 1.7 1.7 0.00 0.00 0.17 44 1008.1
20260509215723 75 264 3.5 5.2 0.00 0.00 0.17 44 1008.4
20260509215134 75 180 2.6 3.5 0.00 0.00 0.17 43 1008.4
20260509214520 75 312 1.7 1.7 0.00 0.00 0.17 44 1008.4